EW6767 Weather Reports


Display with metric or nautical units.
time (UTC)temp
F
wind
direction
speed
MPH
gust
MPH
rain 1hr
in
rain 24hr
in
rain mn
in
humidity
%
barometer
mb
20210801044626 63 167 0.0 0.0 0.00 0.00 0.00 93 1029.6
20210801043232 63 167 0.0 0.0 0.00 0.00 0.00 93 1029.7
20210801041626 63 167 0.0 0.0 0.00 0.00 0.00 92 1029.7
20210801040133 64 167 0.0 0.0 0.00 0.00 0.00 92 1029.7
20210801034602 64 167 0.0 0.0 0.00 0.00 0.00 92 1029.9
20210801033135 65 167 0.0 0.0 0.00 0.00 0.00 92 1029.9
20210801031819 64 167 0.0 0.0 0.00 0.00 0.00 92 1030.1
20210801030131 64 167 0.0 0.0 0.00 0.00 0.00 92 1030.1
20210801024551 64 167 0.0 0.0 0.00 0.00 0.00 92 1030.2
20210801023122 64 170 0.0 0.0 0.00 0.00 0.00 91 1030.2
20210801021613 65 170 0.0 0.0 0.00 0.00 0.00 90 1030.2
20210801020059 65 170 0.0 0.0 0.00 0.00 0.00 89 1030.3
20210801014558 66 170 0.0 0.0 0.00 0.00 0.00 87 1030.2
20210801013106 67 170 0.0 0.0 0.00 0.00 0.00 85 1030.0
20210801011548 67 170 0.0 0.0 0.00 0.00 0.00 82 1030.0
20210801010110 68 170 0.0 0.0 0.00 0.00 0.00 80 1030.2
20210801004531 70 170 0.0 0.0 0.00 0.00 0.00 78 1030.1
20210801003026 71 170 0.0 0.0 0.00 0.00 0.00 76 1030.1
20210801001700 72 170 0.0 0.0 0.00 0.00 0.00 74 1030.0
20210801000035 73 170 0.0 3.0 0.00 0.00 0.00 68 1030.0
20210731234713 73 158 0.0 1.0 0.00 0.00 0.00 68 1030.1
20210731233038 74 169 0.0 1.0 0.00 0.00 0.00 66 1030.0
20210731231644 74 162 0.0 4.0 0.00 0.00 0.00 65 1029.9
20210731230047 75 150 1.0 3.0 0.00 0.00 0.00 64 1029.9
20210731224532 75 165 0.0 3.0 0.00 0.00 0.00 68 1030.0
20210731223029 75 165 0.0 2.0 0.00 0.00 0.00 71 1030.0
20210731221551 75 166 0.0 3.0 0.00 0.00 0.00 71 1030.0
20210731220030 75 162 1.0 3.0 0.00 0.00 0.00 70 1030.0
20210731214522 75 165 0.0 3.0 0.00 0.00 0.00 72 1029.8
20210731213046 75 158 0.0 3.0 0.00 0.00 0.00 68 1029.9
20210731211541 76 161 0.0 1.0 0.00 0.00 0.00 68 1029.9
20210731210027 75 134 0.0 3.0 0.00 0.00 0.00 70 1029.9
20210731204558 76 167 0.0 5.0 0.00 0.00 0.00 69 1030.1
20210731203016 76 161 1.0 5.0 0.00 0.00 0.00 67 1030.4
20210731201525 77 150 1.0 3.0 0.00 0.00 0.00 67 1030.6
20210731200013 77 154 0.0 2.0 0.00 0.00 0.00 65 1030.8
20210731194536 77 149 1.0 5.0 0.00 0.00 0.00 65 1031.1
20210731193016 78 211 0.0 5.0 0.00 0.00 0.00 65 1031.3
20210731191518 78 181 0.0 4.0 0.00 0.00 0.00 65 1031.6
20210731190026 78 203 1.0 5.0 0.00 0.00 0.00 65 1031.6
20210731184649 78 164 0.0 4.0 0.00 0.00 0.00 66 1031.9
20210731183133 78 209 0.0 6.0 0.00 0.00 0.00 66 1032.2
20210731181702 78 207 2.0 6.0 0.00 0.00 0.00 65 1032.4
20210731180124 77 177 0.0 4.0 0.00 0.00 0.00 67 1032.6
20210731174711 78 179 0.0 4.0 0.00 0.00 0.00 64 1032.6
20210731173218 79 179 1.0 4.0 0.00 0.00 0.00 62 1032.6
20210731171654 79 161 1.0 3.0 0.00 0.00 0.00 63 1032.5
20210731170122 80 179 0.0 3.0 0.00 0.00 0.00 62 1032.4
20210731164652 81 174 1.0 4.0 0.00 0.00 0.00 60 1032.4
20210731163324 80 184 0.0 3.0 0.00 0.00 0.00 59 1032.2
20210731161732 81 214 1.0 5.0 0.00 0.00 0.00 57 1032.3
20210731160123 80 170 0.0 2.0 0.00 0.00 0.00 61 1032.2
20210731154657 80 215 0.0 2.0 0.00 0.00 0.00 58 1032.0
20210731153122 80 268 0.0 2.0 0.00 0.00 0.00 63 1032.0
20210731151601 78 276 0.0 2.0 0.00 0.00 0.00 64 1032.2
20210731150316 78 167 0.0 2.0 0.00 0.00 0.00 63 1032.2
20210731144654 77 190 1.0 4.0 0.00 0.00 0.00 67 1032.3
20210731143220 77 156 0.0 2.0 0.00 0.00 0.00 64 1032.1
20210731141622 76 165 0.0 3.0 0.00 0.00 0.00 67 1032.4
20210731140135 75 173 0.0 0.0 0.00 0.00 0.00 70 1032.5
20210731134607 73 173 0.0 2.0 0.00 0.00 0.00 71 1032.8
20210731133051 73 214 0.0 0.0 0.00 0.00 0.00 73 1032.8
20210731131622 72 199 0.0 0.0 0.00 0.00 0.00 74 1032.8
20210731130030 71 129 0.0 1.0 0.00 0.00 0.00 78 1032.9
20210731124546 70 129 0.0 0.0 0.00 0.00 0.00 82 1032.8
20210731123135 69 129 0.0 0.0 0.00 0.00 0.00 85 1032.7
20210731121526 68 129 0.0 0.0 0.00 0.00 0.00 89 1032.8
20210731120048 67 129 0.0 0.0 0.00 0.00 0.00 89 1032.9
20210731114524 67 129 0.0 0.0 0.00 0.00 0.00 89 1032.6
20210731113028 67 129 0.0 0.0 0.00 0.00 0.00 89 1032.6
20210731111527 66 129 0.0 0.0 0.00 0.00 0.00 89 1032.5
20210731110038 66 129 0.0 0.0 0.00 0.00 0.00 89 1032.4
20210731104523 66 129 0.0 0.0 0.00 0.00 0.00 89 1032.4
20210731103026 66 129 0.0 0.0 0.00 0.00 0.00 89 1032.4
20210731101520 66 129 0.0 0.0 0.00 0.00 0.00 89 1032.5
20210731100110 66 129 0.0 0.0 0.00 0.00 0.00 89 1032.5
20210731094522 66 129 0.0 0.0 0.00 0.00 0.00 88 1032.5
20210731093022 67 129 0.0 0.0 0.00 0.00 0.00 87 1032.6
20210731091516 67 129 0.0 0.0 0.00 0.00 0.00 87 1032.5
20210731090009 67 129 0.0 0.0 0.00 0.00 0.00 87 1032.4
20210731084508 67 129 0.0 0.0 0.00 0.00 0.00 87 1032.6
20210731083010 67 129 0.0 0.0 0.00 0.00 0.00 86 1032.7
20210731081522 67 128 0.0 0.0 0.00 0.00 0.00 85 1033.0
20210731080002 67 129 0.0 0.0 0.00 0.00 0.00 85 1033.1
20210731074726 67 128 0.0 0.0 0.00 0.00 0.00 85 1033.1
20210731073328 67 128 0.0 0.0 0.00 0.00 0.00 84 1033.0
20210731071802 67 129 0.0 0.0 0.00 0.00 0.00 84 1032.7
20210731070129 67 129 0.0 0.0 0.00 0.00 0.00 85 1032.8
20210731064709 67 128 0.0 0.0 0.00 0.00 0.00 84 1033.0
20210731063144 68 128 0.0 0.0 0.00 0.00 0.00 84 1033.2
20210731061715 68 129 0.0 0.0 0.00 0.00 0.00 84 1033.1
20210731060112 68 128 0.0 0.0 0.00 0.00 0.00 82 1033.2
20210731054644 68 129 0.0 0.0 0.00 0.00 0.00 81 1033.2
20210731053132 69 128 0.0 0.0 0.00 0.00 0.00 81 1033.4
20210731051610 70 129 0.0 0.0 0.00 0.00 0.00 80 1033.5
20210731050119 70 129 0.0 0.0 0.00 0.00 0.00 78 1033.6